星链-36090(STARLINK-36090)

导读

STARLINK-36090是美国SpaceX公司星链(Starlink)星座的一颗低轨通信卫星,于2025年12月2日发射入轨。作为星链全球互联网星座的组成部分,它服务于全球覆盖高速宽带互联网的建设目标,采用平板设计搭配太阳能电池阵,搭载Ku/Ka波段通信载荷与光学星间链路,以氪工质霍尔推进器实现轨道机动与末期离轨,可自主避撞,寿命约5-7年,退役后将再入大气层焚毁。

Basic Information
目录编号:
66855
目录名称:
STARLINK-36090
国际标识:
2025-281H
轨道中心:
EARTH
卫星名称:
星链-36090
卫星全名:
星链-36090(STARLINK-36090)
卫星状态:
在轨 (已飞行277 天)
发射日期:
2025-12-02 UTC
国别 :
美国 (US)
星等 :
--
Orbit Information
数据来源 国际轨道数据
星历时间: 2026-09-05T19:04:33+0800
7小时前
查看轨道信息
半长轴: 6861.189km
偏心率: 0.0001607
轨道倾角: 43.000°
近地点辐角 279.570°
升交点赤经 47.838°
平近点角 80.497°
近地点: 481.949km
远地点: 484.155km
周期: 94.267分钟
每日圈数: 15.275793
Detailed Information
固有亮度:
5
最大亮度:
2.5
卫星平台:
Starlink V1.0
覆盖范围:
全球
运营商:
太空探索技术公司
运营商所在国:
美国
制造商(研发单位):
太空探索技术公司
制造商所在国:
美国
使用方式:
暂无
Satellite Introduction
Starlink 计划是 SpaceX 推出的全球卫星互联网项目,通过发射低轨道卫星,为全球尤其是偏远地区提供高速、低延迟的互联网服务。自 2019 年起,Starlink 已部署数千颗卫星,旨在缩小全球数字鸿沟,推动互联网普及。该项目还为军事、航空等行业提供通信支持,带来广泛经济效益。
2D Orbit Map
3D Orbit Map
Orbit Altitude Analysis Chart
Orbit Inclination Analysis Chart
Orbit Comprehensive Analysis Chart
View Comprehensive Chart
Conjunction Data List
Event ID Objects TCA Miss Dist (km) Collision Risk Probability Collision Risk Index (CRI) Action
CDM_260907-073405-807506-685521
2026-09-07T
07:34:23+0000
0.730 km
远距离
4.838521E-5 中风险 0.69
CDM_260907-142605-545806-685521
2026-09-07T
14:26:41+0000
0.563 km
远距离
3.634036E-5 中风险 0.66
CDM_260907-111405-823606-685521
2026-09-07T
11:14:00+0000
0.928 km
远距离
1.637592E-5 中风险 0.59
CDM_260907-195105-823606-685521
2026-09-07T
19:51:51+0000
0.939 km
远距离
1.579097E-5 中风险 0.59
CDM_260907-060005-807506-685521
2026-09-07T
06:00:14+0000
1.136 km
极远距离
1.095294E-5 中风险 0.56
CDM_260908-031105-807506-685521
2026-09-08T
03:11:18+0000
1.179 km
极远距离
9.626787E-6 低风险 0.55
CDM_260907-164705-545806-685521
2026-09-07T
16:47:54+0000
0.860 km
远距离
9.215385E-6 低风险 0.54
CDM_260907-093905-823606-685521
2026-09-07T
09:39:51+0000
1.176 km
极远距离
7.265694E-6 低风险 0.52
CDM_260908-013705-807506-685521
2026-09-08T
01:37:09+0000
1.563 km
极远距离
3.769225E-6 低风险 0.47
CDM_260907-090805-807506-685521
2026-09-07T
09:08:32+0000
1.976 km
极远距离
1.950716E-6 低风险 0.41